Retour au catalogue

CZ-6A DEB

ActifPO
NORAD 61359·DEBRIS·🇨🇳 China

Lancé Aug 6, 2024 depuis Taiyuan Satellite Launch Center

Loading…

Prochains Passages (prochaines 24 heures)

TLE

FraisSource: Space-Track

Époque: Sep 14, 2026, 10:51 UTC

1 61359U 24140VY  26257.45272834  .00001740  00000-0  74349-3 0  9994
2 61359  89.0531 268.9098 0039347 251.7631 107.9278 14.24201414105299

Suivez CZ-6A DEB en temps réel avec AllMySat

Download on the App Store